| time (UTC) | temp F | wind direction | speed knots | gust knots | rain 1hr in | rain 24hr in | rain mn in | humidity % | barometer mb |
| 20260505011553 | 74 | 203 | 0.0 | 0.9 | 0.00 | 0.00 | 0.00 | 56 | 1002.2 |
| 20260505010107 | 75 | 217 | 0.0 | 0.9 | 0.00 | 0.00 | 0.00 | 54 | 1002.0 |
| 20260505004551 | 76 | 290 | 0.0 | 0.9 | 0.00 | 0.00 | 0.00 | 53 | 1002.0 |
| 20260505003052 | 77 | 255 | 0.0 | 2.6 | 0.00 | 0.00 | 0.00 | 51 | 1001.8 |
| 20260505001550 | 78 | 245 | 0.0 | 2.6 | 0.00 | 0.00 | 0.00 | 49 | 1001.8 |
| 20260505000054 | 79 | 39 | 0.0 | 1.7 | 0.00 | 0.00 | 0.00 | 48 | 1001.6 |
| 20260504234548 | 79 | 229 | 1.7 | 8.7 | 0.00 | 0.00 | 0.00 | 47 | 1001.6 |
| 20260504233053 | 80 | 228 | 0.0 | 6.1 | 0.00 | 0.00 | 0.00 | 46 | 1001.5 |
| 20260504231546 | 80 | 274 | 1.7 | 7.0 | 0.00 | 0.00 | 0.00 | 45 | 1001.5 |
| 20260504230104 | 81 | 221 | 1.7 | 7.0 | 0.00 | 0.00 | 0.00 | 44 | 1001.6 |
| 20260504224559 | 81 | 247 | 2.6 | 9.6 | 0.00 | 0.00 | 0.00 | 43 | 1001.6 |
| 20260504223044 | 82 | 214 | 0.9 | 9.6 | 0.00 | 0.00 | 0.00 | 44 | 1001.7 |
| 20260504221542 | 82 | 250 | 0.9 | 7.8 | 0.00 | 0.00 | 0.00 | 45 | 1001.5 |
| 20260504220051 | 81 | 254 | 1.7 | 8.7 | 0.00 | 0.00 | 0.00 | 44 | 1001.6 |
| 20260504214545 | 81 | 138 | 0.9 | 7.8 | 0.00 | 0.00 | 0.00 | 46 | 1001.7 |
| 20260504213040 | 82 | 252 | 0.9 | 7.0 | 0.00 | 0.00 | 0.00 | 46 | 1001.8 |
| 20260504211541 | 82 | 319 | 1.7 | 9.6 | 0.00 | 0.00 | 0.00 | 46 | 1001.9 |
| 20260504210052 | 82 | 262 | 1.7 | 6.1 | 0.00 | 0.00 | 0.00 | 44 | 1002.0 |
| 20260504204545 | 82 | 246 | 0.9 | 7.8 | 0.00 | 0.00 | 0.00 | 45 | 1002.1 |
| 20260504203037 | 82 | 227 | 1.7 | 10.4 | 0.00 | 0.00 | 0.00 | 46 | 1002.3 |
| 20260504201536 | 82 | 218 | 3.5 | 11.3 | 0.00 | 0.00 | 0.00 | 45 | 1002.5 |
| 20260504200045 | 82 | 148 | 2.6 | 7.0 | 0.00 | 0.00 | 0.00 | 45 | 1002.6 |
| 20260504194531 | 82 | 162 | 3.5 | 8.7 | 0.00 | 0.00 | 0.00 | 44 | 1002.7 |
| 20260504193027 | 81 | 216 | 0.9 | 8.7 | 0.00 | 0.00 | 0.00 | 47 | 1003.1 |
| 20260504191526 | 80 | 259 | 2.6 | 8.7 | 0.00 | 0.00 | 0.00 | 46 | 1003.2 |
| 20260504190025 | 81 | 218 | 1.7 | 7.0 | 0.00 | 0.00 | 0.00 | 48 | 1003.3 |
| 20260504184532 | 79 | 167 | 0.9 | 7.0 | 0.00 | 0.00 | 0.00 | 50 | 1003.5 |
| 20260504183025 | 77 | 143 | 2.6 | 6.1 | 0.00 | 0.00 | 0.00 | 52 | 1003.0 |
| 20260504181516 | 75 | 199 | 1.7 | 6.1 | 0.00 | 0.00 | 0.00 | 50 | 1003.5 |
| 20260504180014 | 76 | 272 | 1.7 | 6.1 | 0.00 | 0.00 | 0.00 | 48 | 1003.8 |
| 20260504174512 | 76 | 90 | 0.0 | 2.6 | 0.00 | 0.00 | 0.00 | 49 | 1004.0 |
| 20260504173012 | 78 | 131 | 0.0 | 4.3 | 0.00 | 0.00 | 0.00 | 49 | 1003.9 |
| 20260504171509 | 77 | 127 | 0.9 | 4.3 | 0.00 | 0.00 | 0.00 | 46 | 1004.2 |
| 20260504160106 | 76 | 221 | 0.9 | 13.9 | 0.00 | 0.00 | 0.00 | 49 | 1004.5 |
| 20260504081640 | 62 | 276 | 0.0 | 0.0 | 0.00 | 0.00 | 0.00 | 65 | 1007.4 |
| 20260504050012 | 65 | 210 | 0.0 | 2.6 | 0.00 | 0.00 | 0.00 | 57 | 1008.2 |
| 20260504044513 | 65 | 186 | 0.9 | 2.6 | 0.00 | 0.00 | 0.00 | 56 | 1008.3 |
| 20260504043012 | 65 | 184 | 0.0 | 0.9 | 0.00 | 0.00 | 0.00 | 56 | 1008.4 |
| 20260504041508 | 66 | 182 | 0.0 | 1.7 | 0.00 | 0.00 | 0.00 | 54 | 1008.5 |
| 20260504040006 | 66 | 169 | 0.0 | 2.6 | 0.00 | 0.00 | 0.00 | 53 | 1008.6 |
| 20260504034508 | 67 | 192 | 0.9 | 3.5 | 0.00 | 0.00 | 0.00 | 52 | 1008.7 |
| 20260504033005 | 67 | 158 | 0.0 | 1.7 | 0.00 | 0.00 | 0.00 | 52 | 1008.9 |
| 20260504031510 | 67 | 200 | 0.9 | 2.6 | 0.00 | 0.00 | 0.00 | 51 | 1009.0 |
| 20260504030003 | 67 | 162 | 0.0 | 0.0 | 0.00 | 0.00 | 0.00 | 53 | 1009.1 |
| 20260504024503 | 67 | 150 | 0.0 | 0.0 | 0.00 | 0.00 | 0.00 | 53 | 1009.2 |
| 20260504023004 | 67 | 209 | 0.0 | 0.9 | 0.00 | 0.00 | 0.00 | 53 | 1009.0 |
| 20260504021506 | 68 | 295 | 0.0 | 0.0 | 0.00 | 0.00 | 0.00 | 53 | 1008.9 |
| 20260504020003 | 69 | 171 | 0.0 | 0.0 | 0.00 | 0.00 | 0.00 | 51 | 1008.7 |
| 20260504014608 | 69 | 153 | 0.0 | 0.0 | 0.00 | 0.00 | 0.00 | 51 | 1008.7 |
| 20260504013100 | 70 | 195 | 0.0 | 0.0 | 0.00 | 0.00 | 0.00 | 50 | 1008.7 |